Regional Weather Roundup
Issued by NWS Upton, NY

Current Version | Previous Version | Text Only | Print | Product List | Glossary On
Versions: 1 2 3 4 5 6 7 8 9 10 11 12 13 14 15 16 17 18 19 20 21 22 23 24 25 26 27
000 ASUS41 KOKX 251308 RWROKX REGIONAL WEATHER ROUNDUP NATIONAL WEATHER SERVICE NEW YORK NY 900 AM EDT SAT MAR 25 2017 NOTE: "FAIR" INDICATES FEW OR NO CLOUDS BELOW 12,000 FEET WITH NO SIGNIFICANT WEATHER AND/OR OBSTRUCTIONS TO VISIBILITY. NYZ071-072-176-178-NJZ106-104-251400- NEW YORK CITY METRO AREA CITY SKY/WX TMP DP RH WIND PRES REMARKS Central Park CLOUDY 55 38 52 CALM 30.18R Wall St Helipt CLOUDY 49 39 68 VRB6 30.16R LaGuardia APRT PTSUNNY 52 38 58 CALM 30.16R Kennedy INTL CLOUDY 56 42 59 N5 30.17R Breezy Point N/A 52 N/A N/A W1 N/A Newark/Liberty CLOUDY 54 39 57 NW5 30.15R Teterboro CLOUDY 50 39 66 CALM 30.16R $$ NYZ177-179-078>081-251400- LONG ISLAND NEW YORK CITY SKY/WX TMP DP RH WIND PRES REMARKS Jones Beach N/A 48 N/A N/A S3 N/A Matinecock PT N/A 45 N/A N/A NE6 N/A Farmingdale CLOUDY 51 41 68 SW6 30.16R MacArthur/ISP CLOUDY 55 39 54 NW7 30.16R Shirley CLOUDY 52 40 63 CALM 30.17R Westhampton CLOUDY 52 39 61 N5 30.18R East Hampton N/A 53 37 54 MISG 30.15S Montauk N/A 50 41 71 W6 30.16R $$ NYZ052-065-067-251400- HUDSON VALLEY CITY SKY/WX TMP DP RH WIND PRES REMARKS White Plains CLOUDY 46 36 68 NW3 30.16R Newburgh PTSUNNY 41 37 87 VRB5 30.16R Montgomery CLOUDY 40 35 83 CALM 30.15R Poughkeepsie CLOUDY 39 34 82 CALM 30.17R Albany LGT RAIN 37 32 82 N10 30.20R WCI 30 $$ NJZ001-105-106-008-010-013-015-019>022-104-251400- NEW JERSEY CITY SKY/WX TMP DP RH WIND PRES REMARKS Newark/Liberty CLOUDY 54 39 57 NW5 30.15R Teterboro CLOUDY 50 39 66 CALM 30.16R Caldwell CLOUDY 48 36 63 CALM 30.16R Somerville CLOUDY 44 37 76 CALM 30.14R Linden N/A 51 38 60 CALM 30.16R Sussex CLOUDY 40 36 86 CALM 30.16R Andover N/A 42 36 79 CALM 30.16R Trenton CLOUDY 53 45 74 CALM 30.14R Millville CLOUDY 60 49 66 W10 30.18S Atlantic City MOSUNNY 60 47 61 SW12G20 30.17S Wrightstown CLOUDY 58 47 68 SW6 30.12S Toms River CLOUDY 58 48 69 SW12 30.16R Belmar PTSUNNY 57 46 66 SW8 30.15S $$ PAZ047>061-062-071-251400- EASTERN PENNSYLVANIA CITY SKY/WX TMP DP RH WIND PRES REMARKS Philadelphia CLOUDY 56 46 69 SW13 30.17R Allentown CLOUDY 47 38 71 CALM 30.14R Scranton CLOUDY 43 38 82 CALM 30.15R $$ CTZ002-004>006-009-010-012-RIZ004-006-007-MAZ004-011-015-251400- SOUTHERN NEW ENGLAND IN CT CITY SKY/WX TMP DP RH WIND PRES REMARKS Bradley INTL CLOUDY 41 34 76 N7 30.18R Hartford PTSUNNY 43 34 70 N5 30.17R Danbury CLOUDY 42 36 79 CALM 30.17R Wtrbury/Oxford CLOUDY 43 32 65 CALM 30.17R Bridgeport CLOUDY 46 35 65 W3 30.17R Meriden PTSUNNY 41 35 79 CALM 30.16R New Haven CLOUDY 42 36 79 N3 30.16R Chester NOT AVBL Groton PTSUNNY 45 38 76 CALM 30.15R Wilimantic CLOUDY 41 34 76 CALM 30.17R IN RI CITY SKY/WX TMP DP RH WIND PRES REMARKS Providence CLOUDY 45 36 70 NE8 30.17R Block Island PTSUNNY 49 38 65 W5 30.16R Westerly CLOUDY 45 38 76 CALM 30.15S IN MA CITY SKY/WX TMP DP RH WIND PRES REMARKS Boston CLOUDY 40 37 89 N10 30.20R WCI 33 Worcester CLOUDY 39 34 82 NE3 30.16R Westfield CLOUDY 39 36 89 N5 30.17R Provincetown LGT RAIN 40 39 97 NE9 30.18F WCI 34 Nantucket MOSUNNY 47 38 71 NW10 30.16R $$ ANZ330-335-338-340-345-350-353-355-251400- COASTAL MARINE OBSERVATIONS STATION/POSITION TIME SKY/WX TEMP WIND PRES VSBY WAVE AIR SEA DIR/SP/G HT/PER (UTC) (F) (DEG/KT/KT) (MB) (MI) (FT/S) NY HARB ENTRANCE 1150 45 42 90/ 2/ 6 1020.9 4/ 7 20 S FIRE ISLAND 1250 43 40 350/ 2/ 4 1021.3 6/ 8 GREAT SOUTH BAY NOT AVBL 23 SSW MONTAUK P 1150 43 43 1021.6 6/ 7 15 E BARNEGAT LI 1230 42 N/A 6/ 8 HUDSON CANYON 1150 49 45 230/ 17/ 21 1021.2 8/ 8 KINGS POINT 1248 49 38 1021.2 EXECUTION ROCKS NOT AVBL CENTRAL LI SOUND NOT AVBL EASTERN LI SOUND NOT AVBL ROBBINS REEF 1248 50 CALM 1021.3 $$ >>>>>>>>>>>>>>>>>>>>>>>>>>>> KEY <<<<<<<<<<<<<<<<<<<<<<<<<<< > < > SKY/WX - Sky Condition/Present Weather < > TMP - Temperature in Fahrenheit < > DP - Dew Point in Fahrenheit < > RH - Relative Humidity in Percent < > WIND - Direction (from) and Speed in MPH < > PRES - Mean Sea Level Pressure (inches of Hg) < > WCI - Wind Chill Index < > VSB - VISIBILITY IN MILES < > HX - HEAT INDEX < > TC - TEMPERATURE IN CELSIUS < > VRB - VARIABLE WIND DIRECTION < > < >>>>>>>>>>>>>>>>>>>>>>>>>>>> KEY <<<<<<<<<<<<<<<<<<<<<<<<<<<

USA.gov is the U.S. government's official web portal to all federal, state and local government web resources and services.